Showing default

FLOCK 4BE 20, 60489

Orbit data source: Space-Track

FLOCK 4BE 20, 60489 is a payload satellite owned by Planet (US) in SSO that was launched on Fri, 16 Aug 2024 UTC via an FALCON 9 launch vehicle from the Air Force Western Test Range (AFWTR). Payload-class satellites include a variety of spacecraft equipped with specific instruments for various scientific and technological missions. These include communications satellites like Starlink; space stations such as the ISS; scientific satellites like the Hubble; Earth observation satellites from companies like Planet Labs, Umbra, and HawkEye 360; GPS; miniature CubeSats for education and research; and military/defense satellites.

Loading next visibility...
Identifier
60489, 2024-149X
Orbit
SSO
Country
Flag of USUS
Related business
Manufacturer
Planet
Mission
Operational Commercial Imaging
Bus & Motor
CUBESAT 3U, Unknown motor
Mass
5.7 kg wet, 5.7 kg dry
Launch date (UTC)
2024-08-16 (1 year ago)
Launch vehicle
FALCON 9
Launch site
Air Force Western Test Range (AFWTR)
Object type
Payload
Rocket body
Debris
Shape & HBR
Box + 2 Pan, 1.0 m
Radar Cross Section
0.072 m², Medium (>0.1 m² and < 1m²)

Expand to show TLE details & history
Last TLE update: 10 hours ago

TLE from 10 hours ago
0 FLOCK 4BE 20
1 60489U 24149X   25345.21940768  .00019971  00000-0  63953-3 0  9999
2 60489  97.3886  62.0655 0003776 197.5304 162.5808 15.32414417 73378
Epoch: 2025-12-11T05:15Z
TLE epoch observation values (Epoch: 2025-12-11T05:15:56.823Z)
Latitude
-0.00005°
Longitude
-97.09978°
Altitude
474.186 km
Speed
7.627 km/s
True Right ascension
04h 08m 15s
True Declination
0° 00' 00"
Sunlit
Object was in full shadow at epoch
Visualization orbit readout
Latitude
Unknown
Longitude
Unknown
Altitude
Unknown
Speed
Unknown
Apparent Right ascension
Unknown
Apparent Declination
Unknown
Sunlit
N/A
Visualization observer readout
Local Sidereal Time
13:10:34
Azimuth
Unknown
Elevation
Unknown
Doppler factor
Unknown
Orbital elements
Apogee altitude
468.144 km
Perigee altitude
462.976 km
Semi-major axis
6,843.697 km
Eccentricity
0.00038
Inclination
97.3886°
RAAN
62.0655°
Arg. of periapsis
197.5304°
True anomaly
162.59375°
Mean anomaly
162.5808°
Eccentric anomaly
162.58727°
Mean motion
3.8336 °/min
Orbital period
93.91 mins
BSTAR
0.00063953
Loading maneuver chart data...
Computing Atmospheric mass density...
Loading historical data...
Loading historical data...
Loading historical data...
Loading historical data...
Loading historical data...
Loading historical data...
Loading historical data...

Documentation

Showing up to 5 results
|